Smyrna, TN

9:11 AM CST on January 22, 2018 (GMT -0600)
Smyrna

Weather History for KMQY - November, 2011

Change the Weather History Date:

Wednesday, November 23, 2011

  Actual Average Record
Temperature  
Mean Temperature 48 °F -  
Max Temperature 53 °F 55 °F 71 °F (1999)
Min Temperature 39 °F 39 °F 21 °F (2015)
Degree Days  
Heating Degree Days 17    
Moisture  
Dew Point 44 °F    
Average Humidity 81    
Maximum Humidity 93    
Minimum Humidity 71    
Precipitation  
Precipitation 0.00 in - - ()
Sea Level Pressure  
Sea Level Pressure 30.20 in    
Wind  
Wind Speed 10 mph (NNW)    
Max Wind Speed 15 mph    
Max Gust Speed -    
Visibility 10 miles    
Events      
Averages and records for this station are not official NWS values.
T = Trace of Precipitation, MM = Missing Value Source: NWS Daily Summary

Daily Weather History Graph

Daily Weather History Graph

Search for Another Location

Airport or City:

Trip Planner

Search our weather history database for the weather conditions in past years. The results will help you decide how hot, cold, wet, or windy it might be!

Date:

Astronomy

Nov. 23, 2011 Rise Set
Actual Time 6:30 AM CST 4:34 PM CST
Civil Twilight 6:02 AM CST 5:02 PM CST
Nautical Twilight 5:31 AM CST 5:33 PM CST
Astronomical Twilight 5:00 AM CST 6:04 PM CST
Moon 4:35 AM CST (11/23) 3:14 PM CST (11/23)
Length of Visible Light 10h 59m
Length of Day
10h 03m
Waning Crescent, 3% of the Moon is Illuminated
Nov 23
Waning Crescent
Nov 25
New
Dec 2
First Quarter
Dec 10
Full
Dec 17
Last Quarter

Hourly Weather History & Observations

Time (CST) Temp. Windchill Dew Point Humidity Pressure Visibility Wind Dir Wind Speed Gust Speed Precip Events Conditions
12:36 AM 53.6 °F - 48.2 °F 82% 30.02 in 10.0 mi NW 10.4 mph - N/A   Overcast
12:56 AM 52.9 °F - 48.9 °F 86% 30.02 in 10.0 mi NW 12.7 mph - N/A   Overcast
1:41 AM 51.8 °F - 46.4 °F 82% 30.06 in 10.0 mi NNW 12.7 mph - N/A   Overcast
1:56 AM 50.9 °F - 46.9 °F 86% 30.06 in 10.0 mi NNW 12.7 mph - N/A   Overcast
2:10 AM 51.8 °F - 46.4 °F 82% 30.08 in 10.0 mi NW 13.8 mph - N/A   Overcast
2:32 AM 51.8 °F - 46.4 °F 82% 30.08 in 10.0 mi NNW 13.8 mph - N/A   Overcast
2:56 AM 50.0 °F - 45.9 °F 86% 30.07 in 10.0 mi NNW 13.8 mph - N/A   Overcast
3:21 AM 50.0 °F - 46.4 °F 87% 30.09 in 10.0 mi NNW 10.4 mph - N/A   Overcast
3:34 AM 48.2 °F - 46.4 °F 93% 30.09 in 10.0 mi NW 11.5 mph - N/A   Overcast
3:56 AM 48.9 °F - 45.0 °F 86% 30.09 in 10.0 mi NW 8.1 mph - N/A   Overcast
4:56 AM 48.9 °F - 45.9 °F 89% 30.12 in 10.0 mi NNW 11.5 mph - N/A   Overcast
5:35 AM 48.2 °F - 44.6 °F 87% 30.15 in 10.0 mi NNW 13.8 mph - N/A   Overcast
5:56 AM 48.9 °F - 45.0 °F 86% 30.15 in 10.0 mi NNW 15.0 mph - 0.00 in   Overcast
6:56 AM 48.9 °F - 45.0 °F 86% 30.19 in 10.0 mi North 12.7 mph - N/A   Overcast
7:56 AM 48.9 °F - 43.9 °F 83% 30.22 in 9.0 mi North 10.4 mph - N/A   Overcast
8:56 AM 48.9 °F - 43.9 °F 83% 30.23 in 10.0 mi North 9.2 mph - N/A   Overcast
9:56 AM 50.0 °F - 43.9 °F 79% 30.26 in 10.0 mi North 10.4 mph - N/A   Overcast
10:49 AM 51.8 °F - 44.6 °F 76% 30.27 in 10.0 mi North 9.2 mph - N/A   Overcast
10:56 AM 50.9 °F - 43.9 °F 77% 30.26 in 10.0 mi North 10.4 mph - N/A   Overcast
11:09 AM 50.0 °F - 44.6 °F 82% 30.27 in 10.0 mi North 12.7 mph - N/A   Overcast
11:19 AM 51.8 °F - 42.8 °F 71% 30.27 in 10.0 mi North 10.4 mph - N/A   Overcast
11:56 AM 50.9 °F - 43.9 °F 77% 30.25 in 10.0 mi North 9.2 mph - N/A   Overcast
12:56 PM 52.0 °F - 43.9 °F 74% 30.25 in 10.0 mi North 8.1 mph - N/A   Overcast
1:56 PM 52.9 °F - 43.9 °F 71% 30.25 in 10.0 mi NNW 5.8 mph - N/A   Overcast
2:56 PM 52.0 °F - 43.9 °F 74% 30.25 in 10.0 mi NNW 9.2 mph - N/A   Overcast
3:56 PM 50.9 °F - 43.9 °F 77% 30.27 in 10.0 mi North 6.9 mph - N/A   Overcast
4:56 PM 50.9 °F - 43.9 °F 77% 30.28 in 10.0 mi North 5.8 mph - N/A   Overcast
7:56 PM 50.0 °F - 41.9 °F 74% 30.33 in 10.0 mi North 6.9 mph - N/A   Overcast
8:56 PM 50.0 °F - 41.9 °F 74% 30.34 in 10.0 mi North 4.6 mph - N/A   Overcast
9:56 PM 48.9 °F - 41.9 °F 77% 30.34 in 10.0 mi Calm Calm - N/A   Overcast
10:30 PM 46.4 °F 44.3 °F 39.2 °F 76% 30.34 in 10.0 mi North 4.6 mph - N/A   Scattered Clouds
10:56 PM 43.9 °F - 37.9 °F 80% 30.34 in 10.0 mi Calm Calm - N/A   Clear
11:56 PM 39.9 °F - 37.9 °F 93% 30.35 in 7.0 mi Calm Calm - N/A   Clear